Beverly, MA

4:12 AM EST on December 15, 2017 (GMT -0500)
Beverly Municipal

Weather History for KBVY - May, 2013

Change the Weather History Date:

Tuesday, May 14, 2013

  Actual Average Record
Temperature  
Mean Temperature 47 °F -  
Max Temperature 59 °F 62 °F 79 °F (1981)
Min Temperature 37 °F 42 °F 33 °F (1999)
Degree Days  
Heating Degree Days 18    
Moisture  
Dew Point 29 °F    
Average Humidity 49    
Maximum Humidity 73    
Minimum Humidity 30    
Precipitation  
Precipitation 0.00 in - - ()
Sea Level Pressure  
Sea Level Pressure 30.00 in    
Wind  
Wind Speed 7 mph (NW)    
Max Wind Speed 17 mph    
Max Gust Speed 23 mph    
Visibility 10 miles    
Events      
Averages and records for this station are not official NWS values.
T = Trace of Precipitation, MM = Missing Value Source: NWS Daily Summary

Daily Weather History Graph

Daily Weather History Graph

Search for Another Location

Airport or City:

Trip Planner

Search our weather history database for the weather conditions in past years. The results will help you decide how hot, cold, wet, or windy it might be!

Date:

Astronomy

May. 14, 2013 Rise Set
Actual Time 5:22 AM EDT 7:58 PM EDT
Civil Twilight 4:50 AM EDT 8:30 PM EDT
Nautical Twilight 4:09 AM EDT 9:11 PM EDT
Astronomical Twilight 3:24 AM EDT 9:57 PM EDT
Moon 8:59 AM EDT (5/14) 11:42 PM EDT (5/14)
Length of Visible Light 15h 40m
Length of Day
14h 35m
Waxing Crescent, 19% of the Moon is Illuminated
May 14
Waxing Crescent
May 18
First Quarter
May 25
Full
May 31
Last Quarter
Jun 8
New

Hourly Weather History & Observations

Time (EDT) Temp. Windchill Dew Point Humidity Pressure Visibility Wind Dir Wind Speed Gust Speed Precip Events Conditions
12:53 AM 44.1 °F - 30.0 °F 58% 30.00 in 10.0 mi Calm Calm - N/A   Overcast
1:53 AM 44.1 °F 41.5 °F 30.9 °F 60% 30.00 in 10.0 mi NW 4.6 mph - N/A   Overcast
2:53 AM 42.1 °F 38.4 °F 30.9 °F 65% 29.99 in 10.0 mi NW 5.8 mph - N/A   Overcast
3:53 AM 37.9 °F 33.5 °F 30.0 °F 73% 29.99 in 10.0 mi NW 5.8 mph - N/A   Partly Cloudy
4:53 AM 37.9 °F 33.5 °F 30.0 °F 73% 29.99 in 10.0 mi NNW 5.8 mph - N/A   Partly Cloudy
5:53 AM 39.9 °F 33.9 °F 32.0 °F 73% 30.01 in 10.0 mi NNW 9.2 mph - N/A   Overcast
6:53 AM 42.1 °F 38.4 °F 33.1 °F 70% 30.03 in 10.0 mi NNW 5.8 mph - N/A   Overcast
7:53 AM 45.0 °F 40.6 °F 33.1 °F 63% 30.04 in 10.0 mi North 8.1 mph - N/A   Overcast
8:53 AM 50.0 °F - 32.0 °F 50% 30.03 in 10.0 mi North 8.1 mph - N/A   Clear
9:53 AM 52.0 °F - 30.0 °F 43% 30.01 in 10.0 mi North 10.4 mph 19.6 mph N/A   Partly Cloudy
10:53 AM 53.1 °F - 28.9 °F 40% 30.01 in 10.0 mi NNW 9.2 mph 19.6 mph N/A   Scattered Clouds
11:53 AM 54.0 °F - 32.0 °F 43% 30.01 in 10.0 mi NNW 10.4 mph 16.1 mph N/A   Mostly Cloudy
12:53 PM 54.0 °F - 28.0 °F 37% 29.99 in 10.0 mi NW 17.3 mph 23.0 mph N/A   Mostly Cloudy
1:53 PM 57.0 °F - 28.0 °F 33% 29.99 in 10.0 mi NW 15.0 mph 21.9 mph N/A   Mostly Cloudy
2:53 PM 57.0 °F - 28.9 °F 34% 29.97 in 10.0 mi NW 13.8 mph 18.4 mph N/A   Mostly Cloudy
3:53 PM 55.9 °F - 25.0 °F 30% 29.96 in 10.0 mi WNW 11.5 mph 18.4 mph N/A   Mostly Cloudy
4:53 PM 55.9 °F - 26.1 °F 32% 29.96 in 10.0 mi West 9.2 mph - N/A   Overcast
5:53 PM 57.9 °F - 26.1 °F 30% 29.95 in 10.0 mi NNW 12.7 mph - N/A   Overcast
6:53 PM 53.1 °F - 26.1 °F 35% 29.96 in 10.0 mi NW 6.9 mph - N/A   Scattered Clouds
7:53 PM 51.1 °F - 26.1 °F 38% 29.97 in 10.0 mi West 4.6 mph - N/A   Clear
8:53 PM 48.9 °F - 26.1 °F 41% 29.99 in 10.0 mi West 5.8 mph - N/A   Scattered Clouds
9:53 PM 48.9 °F - 27.0 °F 43% 30.01 in 10.0 mi West 5.8 mph - N/A   Overcast
10:53 PM 46.9 °F - 28.0 °F 48% 30.01 in 10.0 mi West 5.8 mph - N/A   Clear
11:53 PM 45.0 °F 42.6 °F 28.9 °F 53% 30.02 in 10.0 mi West 4.6 mph - N/A   Clear